FW1340 Weather Reports


time (UTC)temp
C
wind
direction
speed
KPH
gust
KPH
rain 1hr
cm
rain 24hr
cm
rain mn
cm
humidity
%
barometer
mb
20260904080028 17 269 0.0 0.0 0.00 0.00 0.00 87 1011.8
20260904074526 17 277 0.0 0.0 0.00 0.00 0.00 87 1011.8
20260904073024 17 263 0.0 0.0 0.00 0.00 0.00 86 1011.9
20260904071522 17 240 0.0 0.0 0.00 0.00 0.00 84 1011.9
20260904070019 18 275 0.0 0.0 0.00 0.00 0.00 83 1011.8
20260904064523 18 255 0.0 0.0 0.00 0.00 0.00 83 1011.8
20260904063026 18 267 0.0 0.0 0.00 0.00 0.00 83 1011.8
20260904061533 18 309 0.0 0.0 0.00 0.00 0.00 83 1011.8
20260904060022 18 271 0.0 0.0 0.00 0.00 0.00 83 1011.8
20260904054521 18 276 0.0 0.0 0.00 0.00 0.00 82 1011.8
20260904053016 18 255 0.0 0.0 0.00 0.00 0.00 82 1011.8
20260904051516 18 254 0.0 0.0 0.00 0.00 0.00 82 1011.8
20260904050026 18 264 0.0 0.0 0.00 0.00 0.00 82 1011.8
20260904044515 18 263 0.0 0.0 0.00 0.00 0.00 82 1011.8
20260904043015 18 259 0.0 0.0 0.00 0.00 0.00 82 1011.9
20260904041518 18 232 0.0 0.0 0.00 0.00 0.00 82 1011.8
20260904040031 18 275 0.0 0.0 0.00 0.00 0.00 81 1011.7
20260904034514 18 321 0.0 0.0 0.00 0.00 0.00 82 1011.8
20260904033012 19 270 0.0 0.0 0.00 0.00 0.00 81 1011.5
20260904031519 19 264 0.0 0.0 0.00 0.00 0.00 81 1011.3
20260904030014 20 264 0.0 0.0 0.00 0.00 0.00 79 1011.1
20260904024512 20 273 0.0 0.0 0.00 0.00 0.00 77 1011.2
20260904023016 20 302 0.0 0.0 0.00 0.00 0.00 74 1011.2
20260904021525 21 325 0.0 0.0 0.00 0.00 0.00 73 1011.2
20260904020009 21 242 0.0 0.0 0.00 0.00 0.00 73 1011.0
20260904014507 21 261 0.0 0.0 0.00 0.00 0.00 71 1011.2
20260904013129 22 324 0.0 0.0 0.00 0.00 0.00 68 1011.3
20260904011505 22 313 0.0 0.0 0.00 0.00 0.00 66 1011.4
20260904010005 23 323 0.0 0.0 0.00 0.00 0.00 66 1011.4
20260904004504 23 260 0.0 0.0 0.00 0.00 0.00 64 1011.3
20260904003008 24 275 0.0 0.0 0.00 0.00 0.00 61 1011.2
20260904001503 25 246 0.0 0.0 0.00 0.00 0.00 60 1011.2
20260904000005 24 323 0.0 0.0 0.00 0.00 0.00 60 1011.3
20260903234503 25 284 0.0 0.0 0.00 0.00 0.00 57 1011.3
20260903233100 26 250 0.0 0.0 0.00 0.00 0.00 55 1011.3
20260903231607 26 273 0.0 0.0 0.00 0.00 0.00 55 1011.4
20260903230058 26 284 0.0 0.0 0.00 0.00 0.00 56 1011.6
20260903224555 26 244 0.0 0.0 0.00 0.00 0.00 55 1011.7
20260903223052 26 259 0.0 0.0 0.00 0.00 0.00 56 1011.8
20260903221550 25 247 0.0 0.0 0.00 0.00 0.00 57 1012.2
20260903220048 26 282 0.0 0.0 0.00 0.00 0.00 56 1012.4
20260903214546 26 308 0.0 0.0 0.00 0.00 0.00 55 1012.5
20260903213051 26 260 0.0 0.0 0.00 0.00 0.00 55 1012.5
20260903211544 25 309 0.0 0.0 0.00 0.00 0.00 55 1012.6
20260903210042 25 321 0.0 0.0 0.00 0.00 0.00 57 1012.8
20260903204542 25 320 0.0 0.0 0.00 0.00 0.00 56 1012.9
20260903203039 25 15 0.0 0.0 0.00 0.00 0.00 59 1013.0
20260903201535 24 261 0.0 0.0 0.00 0.00 0.00 59 1013.0
20260903200034 25 270 0.0 0.0 0.00 0.00 0.00 56 1013.2
20260903194530 25 173 0.0 0.0 0.00 0.00 0.00 56 1013.4
20260903193028 24 226 0.0 0.0 0.00 0.00 0.00 57 1013.7
20260903191535 23 242 0.0 0.0 0.00 0.00 0.00 59 1013.9
20260903190020 23 257 0.0 0.0 0.00 0.00 0.00 61 1014.1
20260903184518 23 257 0.0 0.0 0.00 0.00 0.00 63 1014.3
20260903183024 23 254 0.0 0.0 0.00 0.00 0.00 62 1014.4
20260903181512 22 250 0.0 0.0 0.00 0.00 0.00 64 1014.5
20260903180114 22 264 0.0 0.0 0.00 0.00 0.00 65 1014.6
20260903174509 22 209 0.0 0.0 0.00 0.00 0.00 65 1014.6
20260903173005 21 215 0.0 0.0 0.00 0.00 0.00 66 1014.7
20260903171502 21 243 0.0 0.0 0.00 0.00 0.00 68 1014.8
20260903170000 21 240 0.0 0.0 0.00 0.00 0.00 68 1014.9
20260903164557 21 226 0.0 0.0 0.00 0.00 0.00 70 1015.1
20260903163121 20 234 0.0 0.0 0.00 0.00 0.00 71 1015.0
20260903161549 20 229 0.0 0.0 0.00 0.00 0.00 74 1015.2
20260903160048 19 178 0.0 0.0 0.00 0.00 0.00 76 1015.2
20260903154541 18 108 0.0 0.0 0.00 0.00 0.00 79 1015.3
20260903153035 17 169 0.0 0.0 0.00 0.00 0.00 82 1015.4
20260903151533 16 128 0.0 0.0 0.00 0.00 0.00 87 1015.6
20260903150028 15 107 0.0 0.0 0.00 0.00 0.00 91 1015.5
20260903144525 14 105 0.0 0.0 0.00 0.00 0.00 94 1015.5
20260903143020 13 134 0.0 0.0 0.00 0.00 0.00 94 1015.4
20260903141517 12 128 0.0 0.0 0.00 0.00 0.00 94 1015.4
20260903140016 12 117 0.0 0.0 0.00 0.00 0.00 93 1015.4
20260903134512 12 125 0.0 0.0 0.00 0.00 0.00 93 1015.2
20260903133013 12 89 0.0 0.0 0.00 0.00 0.00 93 1015.2
20260903131510 12 89 0.0 0.0 0.00 0.00 0.00 93 1015.1
20260903130008 12 92 0.0 0.0 0.00 0.00 0.00 93 1015.2
20260903124507 12 88 0.0 0.0 0.00 0.00 0.00 92 1015.2
20260903123005 12 92 0.0 0.0 0.00 0.00 0.00 93 1015.2
20260903121509 12 94 0.0 0.0 0.00 0.00 0.00 92 1015.3
20260903120002 12 105 0.0 0.0 0.00 0.00 0.00 92 1015.4
20260903114607 12 88 0.0 0.0 0.00 0.00 0.00 91 1015.6
20260903113101 12 106 0.0 0.0 0.00 0.00 0.00 90 1015.6
20260903111556 13 237 0.0 0.0 0.00 0.00 0.00 92 1015.6
20260903104554 13 81 0.0 0.0 0.00 0.00 0.00 92 1015.6
20260903103054 12 81 0.0 0.0 0.00 0.00 0.00 90 1015.7
20260903101551 12 130 0.0 0.0 0.00 0.00 0.00 88 1015.8
20260903100049 13 129 0.0 0.0 0.00 0.00 0.00 87 1015.8
20260903094546 13 184 0.0 0.0 0.00 0.00 0.00 86 1015.7
20260903093043 14 229 0.0 0.0 0.00 0.00 0.00 87 1015.7
20260903091539 14 229 0.0 0.0 0.00 0.00 0.00 88 1016.0
20260903090038 14 219 0.0 0.0 0.00 0.00 0.00 86 1016.2
20260903084535 15 242 0.0 0.0 0.00 0.00 0.00 86 1016.1
20260903083042 15 225 0.0 0.0 0.00 0.00 0.00 85 1016.1
20260903081532 15 257 0.0 0.0 0.00 0.00 0.00 85 1016.1